[[{"header":{"parameterUnit":"m.s-1","parameterCategory":1,"la1":30.2991,"la2":30.254,"lo1":-89.0895,"lo2":-89.0444,"dx":0.0017,"dy":0.0017,"nx":28,"ny":28,"refTime":"2023-01-13T09:00:00:Z","depth":0,"parameterNumber":2,"parameterNumberName":"U-component_of_WINDS"},"data":[0,0,0,0,0,0,0,0,0,0,0,0,0,0,0,0,0,0,0,0,0,0,0,0,0,0,0,0,0,0,0,0,0,0,0,0,0,0,0,0,0,0,0,0,0,0,0,0,0,0,0,0,0,0,0,0,0,0,-2.8162,-2.8162,0,-2.8194,-2.8194,-2.8194,-2.8135,-2.8133,-2.8131,-2.8129,-2.8161,-2.8163,-2.8166,0,0,0,0,0,0,0,0,0,0,0,0,0,-2.8048,-2.805,-2.8162,-2.8162,-2.8163,-2.8193,-2.8194,-2.8194,-2.8136,-2.8133,-2.8131,-2.8129,-2.816,-2.8163,-2.8166,0,0,0,0,0,0,0,0,0,0,0,0,0,-2.809,-2.8051,-2.8162,-2.8137,-2.8135,-2.8193,-2.8194,-2.8194,-2.8136,-2.8133,-2.813,-2.8127,-2.8159,-2.8163,-2.8166,-2.825,0,0,-2.8179,-2.818,0,0,0,0,0,0,0,0,-2.8088,-2.8094,-2.814,-2.8139,-2.8137,-2.8157,-2.8165,-2.8213,-2.8137,-2.8136,-2.8129,-2.8126,-2.8162,-2.8165,-2.8178,-2.8251,-2.8253,-2.8179,-2.8181,-2.8183,-2.8184,0,0,0,0,0,0,0,-2.8085,-2.8093,-2.8174,-2.8141,-2.8139,-2.8123,-2.8126,-2.8174,-2.8165,-2.8135,-2.8131,-2.8136,-2.816,-2.8174,-2.8178,-2.8253,-2.8179,-2.8182,-2.8185,-2.8186,-2.8394,-2.8397,0,0,0,0,0,0,-2.8085,-2.8091,-2.8173,-2.8175,-2.8105,-2.8128,-2.8131,-2.8154,-2.8164,-2.8163,-2.8138,-2.8133,-2.8169,-2.8173,-2.8179,-2.8275,-2.8183,-2.8187,-2.8189,-2.8391,-2.8395,-2.8398,0,0,0,0,0,0,-2.8083,-2.8093,-2.8172,-2.8132,-2.8141,-2.8133,-2.8159,-2.8156,-2.8169,-2.8166,-2.8164,-2.8154,-2.8167,-2.8173,-2.8232,-2.8275,-2.8189,-2.8192,-2.8387,-2.8392,-2.8396,-2.8469,0,0,0,0,0,0,-2.808,-2.8093,-2.8125,-2.8133,-2.8143,-2.8226,-2.8162,-2.8159,-2.8177,-2.817,-2.8181,-2.8179,-2.8165,-2.8226,-2.8236,-2.8279,-2.8195,-2.8383,-2.8389,-2.8395,-2.8462,-2.8475,-2.8486,0,0,0,0,0,-2.8076,-2.8145,-2.8127,-2.8137,-2.8183,-2.8228,-2.8234,-2.8216,-2.8181,-2.8212,-2.821,-2.8179,-2.827,-2.8233,-2.8243,-2.8288,-2.838,-2.8388,-2.8394,-2.8457,-2.8473,-2.8486,0,0,0,0,0,0,-2.8142,-2.8145,-2.8126,-2.8199,-2.8214,-2.8218,-2.8257,-2.8233,-2.8258,-2.8251,-2.8227,-2.823,-2.8293,-2.8297,-2.8256,-2.8368,-2.8319,-2.8328,-2.8363,-2.8378,-2.839,-2.8386,-2.8199,0,0,0,0,0,-2.8165,-2.8202,-2.8203,-2.8267,-2.8275,-2.8265,-2.8284,-2.8269,-2.8283,-2.8289,-2.8291,-2.8306,-2.8337,-2.8358,-2.8387,-2.8464,-2.8463,-2.8499,-2.8511,-2.8521,-2.8529,-2.8567,-2.8582,-2.8421,-2.8421,-2.8421,0,0,-2.8212,-2.8219,-2.8244,-2.828,-2.829,-2.8327,-2.8271,-2.8314,-2.834,-2.8295,-2.835,-2.8353,-2.8367,-2.8435,-2.8464,-2.844,-2.8573,-2.853,-2.8538,-2.854,-2.8576,-2.8591,-2.8604,-2.8426,-2.8425,-2.8424,0,0,-2.8318,-2.8328,-2.8381,-2.8392,-2.8407,-2.84,-2.8413,-2.8421,-2.842,-2.8475,-2.8442,-2.8474,-2.8529,-2.854,-2.8552,-2.8661,-2.8633,-2.8672,-2.8733,-2.877,-2.8783,-2.8794,-2.883,-2.8844,-2.868,-2.868,-2.868,0,-2.8375,-2.843,-2.8411,-2.8455,-2.8471,-2.8433,-2.8485,-2.8497,-2.8521,-2.8532,-2.8505,-2.8572,-2.8579,-2.8647,-2.8674,-2.8686,-2.8699,-2.8669,-2.8783,-2.8794,-2.8804,-2.8838,-2.8852,-2.8684,-2.8684,-2.8683,-2.8683,0,-2.8498,-2.8537,-2.8578,-2.8602,-2.8623,-2.8671,-2.8658,-2.8682,-2.8665,-2.8661,-2.8716,-2.8724,-2.8752,-2.8768,-2.8752,-2.8833,-2.8817,-2.8787,-2.8736,-2.8824,-2.8855,-2.8868,-2.869,-2.8689,-2.8688,-2.8686,0,0,-2.8644,-2.8656,-2.8671,-2.868,-2.8695,-2.8724,-2.877,-2.8798,-2.8817,-2.8836,-2.8872,-2.892,-2.8891,-2.8906,-2.8891,-2.8924,-2.9006,-2.8889,-2.8889,-2.8908,-2.9093,-2.9114,-2.9129,-2.8989,-2.8991,-2.8993,-2.9091,0,-2.8746,-2.8825,-2.8809,-2.8886,-2.8921,-2.8885,-2.8924,-2.8937,-2.8934,-2.8962,-2.8959,-2.8991,-2.8953,-2.8961,-2.8993,-2.899,-2.9043,-2.8983,-2.902,-2.9022,-2.9015,-2.9146,-2.9168,-2.926,-2.9103,-2.9105,-2.9107,0,-2.8876,-2.8898,-2.8978,-2.8985,-2.8999,-2.9035,-2.9058,-2.9086,-2.9099,-2.9094,-2.911,-2.9089,-2.9133,-2.9085,-2.9144,-2.9104,-2.9118,-2.9119,-2.9122,-2.9123,-2.9068,-2.9147,-2.9289,-2.9301,-2.9127,-2.9125,-2.9124,0,-2.897,-2.9021,-2.9074,-2.9084,-2.9094,-2.912,-2.9125,-2.9135,-2.9152,-2.9173,-2.9183,-2.9209,-2.9223,-2.9243,-2.9228,-2.9194,-2.9289,-2.924,-2.9285,-2.9285,-2.9304,-2.9302,-2.9447,-2.9319,-2.9319,-2.9318,-2.9318,0,-2.9084,-2.9134,-2.9117,-2.915,-2.9204,-2.9185,-2.9239,-2.924,-2.9249,-2.928,-2.9252,-2.9282,-2.9262,-2.9291,-2.928,-2.9329,-2.9336,-2.9332,-2.9328,-2.9333,-2.9333,-2.934,-2.9332,-2.9322,-2.9321,-2.932,-2.932,0,-2.9198,-2.9189,-2.9244,-2.9249,-2.9251,-2.9291,-2.9294,-2.9324,-2.932,-2.936,-2.9368,-2.936,-2.9392,-2.938,-2.9414,-2.9407,-2.9469,-2.9458,-2.9464,-2.946,-2.9504,-2.9499,-2.9656,-2.9674,-2.9538,-2.9539,-2.954,0,-2.927,-2.9307,-2.9315,-2.9334,-2.9342,-2.9373,-2.939,-2.9373,-2.9392,-2.9409,-2.9436,-2.9465,-2.9487,-2.9539,-2.9536,-2.9561,-2.9549,-2.9602,-2.9552,-2.9555,-2.9546,-2.9543,-2.9545,-2.9611,-2.9613,-2.9614,-2.9615,0,-2.9397,-2.939,-2.9416,-2.9441,-2.9462,-2.948,-2.9496,-2.9513,-2.9497,-2.9519,-2.9551,-2.9568,-2.9603,-2.9631,-2.9653,-2.9658,-2.9633,-2.9631,-2.9642,-2.9646,-2.9647,-2.9644,-2.9488,-2.9627,-2.9626,-2.9625,-2.9624,-2.9624,-2.949,-2.952,-2.953,-2.956,-2.957,-2.9585,-2.9613,-2.9611,-2.9637,-2.9663,-2.9652,-2.9688,-2.9698,-2.9726,-2.9734,-2.9761,-2.974,-2.9757,-2.9761,-2.9764,-2.9769,-2.9645,-2.9766,-2.9765,-2.9765,-2.9765,-2.9764,0,-2.9613,-2.9618,-2.9645,-2.9667,-2.969,-2.9666,-2.9682,-2.9702,-2.9735,-2.9747,-2.9769,-2.9804,-2.9832,-2.9831,-2.9856,-2.9877,-2.9867,-2.9884,-2.9881,-2.9882,-2.9788,-2.9774,-2.9892,-2.9892,-2.9892,-2.9892,-2.9892,-2.9892,-2.9679,-2.9729,-2.9723,-2.9777,-2.9781,-2.9816,-2.9827,-2.984,-2.9849,-2.989,-2.9912,-2.9912,-2.9918,-2.9943,-2.9966,-2.9965,-2.9974,-2.9996,-2.999,-2.9901,-2.9889,-2.9876,-2.9863,-2.9999,-2.9999,-3.0081,-3.0082,-3.0083]},{"header":{"parameterUnit":"m.s-1","parameterCategory":1,"la1":30.2991,"la2":30.254,"lo1":-89.0895,"lo2":-89.0444,"dx":0.0017,"dy":0.0017,"nx":28,"ny":28,"refTime":"2023-01-13T09:00:00:Z","depth":0,"parameterNumber":3,"parameterNumberName":"V-component_of_WINDS"},"data":[0,0,0,0,0,0,0,0,0,0,0,0,0,0,0,0,0,0,0,0,0,0,0,0,0,0,0,0,0,0,0,0,0,0,0,0,0,0,0,0,0,0,0,0,0,0,0,0,0,0,0,0,0,0,0,0,0,0,-1.656,-1.6561,0,-1.664,-1.6641,-1.6642,-1.665,-1.665,-1.6649,-1.6648,-1.673,-1.6733,-1.6736,0,0,0,0,0,0,0,0,0,0,0,0,0,-1.6414,-1.6416,-1.656,-1.6561,-1.6562,-1.664,-1.6641,-1.6642,-1.665,-1.6649,-1.6648,-1.6648,-1.6729,-1.6733,-1.6736,0,0,0,0,0,0,0,0,0,0,0,0,0,-1.6484,-1.6417,-1.656,-1.6575,-1.6578,-1.6639,-1.6641,-1.6642,-1.6651,-1.6649,-1.6648,-1.6647,-1.6728,-1.6732,-1.6737,-1.6788,0,0,-1.675,-1.6752,0,0,0,0,0,0,0,0,-1.648,-1.6489,-1.6572,-1.6574,-1.6577,-1.6634,-1.6619,-1.6691,-1.6651,-1.6623,-1.6648,-1.6647,-1.6699,-1.6706,-1.6723,-1.6792,-1.6795,-1.675,-1.6753,-1.6755,-1.6756,0,0,0,0,0,0,0,-1.6475,-1.6486,-1.6591,-1.6573,-1.6576,-1.6578,-1.6587,-1.6633,-1.6667,-1.6625,-1.6626,-1.6635,-1.67,-1.6719,-1.6725,-1.6797,-1.675,-1.6754,-1.6757,-1.6759,-1.691,-1.6911,0,0,0,0,0,0,-1.6467,-1.6482,-1.6589,-1.6594,-1.6524,-1.6582,-1.6592,-1.6617,-1.6666,-1.6673,-1.6636,-1.6636,-1.6712,-1.672,-1.6728,-1.6791,-1.6755,-1.6759,-1.6762,-1.6909,-1.691,-1.6912,0,0,0,0,0,0,-1.6464,-1.6477,-1.6586,-1.6538,-1.6552,-1.6586,-1.6614,-1.6619,-1.6638,-1.6675,-1.6681,-1.665,-1.6712,-1.6722,-1.6773,-1.6794,-1.6761,-1.6765,-1.6907,-1.6909,-1.6911,-1.6917,0,0,0,0,0,0,-1.646,-1.6475,-1.6496,-1.6538,-1.6555,-1.6629,-1.6615,-1.6621,-1.6646,-1.6645,-1.6689,-1.6695,-1.6711,-1.6766,-1.6777,-1.68,-1.6768,-1.6905,-1.6908,-1.6911,-1.6915,-1.6919,-1.6923,0,0,0,0,0,-1.6455,-1.6494,-1.6497,-1.651,-1.658,-1.663,-1.6639,-1.6658,-1.6647,-1.6668,-1.6691,-1.6693,-1.679,-1.6771,-1.6784,-1.6808,-1.6904,-1.6907,-1.691,-1.6914,-1.6919,-1.6923,0,0,0,0,0,0,-1.6454,-1.65,-1.6503,-1.6558,-1.659,-1.6632,-1.6658,-1.6662,-1.6698,-1.6696,-1.6717,-1.6727,-1.6777,-1.6798,-1.6776,-1.686,-1.6846,-1.6852,-1.6844,-1.6849,-1.6853,-1.6847,-1.6772,0,0,0,0,0,-1.646,-1.6496,-1.6535,-1.658,-1.6596,-1.6624,-1.6646,-1.6658,-1.6692,-1.6705,-1.6732,-1.6765,-1.6803,-1.6827,-1.6864,-1.6918,-1.6928,-1.6941,-1.6945,-1.6948,-1.6952,-1.6982,-1.6988,-1.6922,-1.6922,-1.6922,0,0,-1.6473,-1.6503,-1.6525,-1.6581,-1.6607,-1.6644,-1.6635,-1.6675,-1.6703,-1.6711,-1.6761,-1.6782,-1.682,-1.6872,-1.6897,-1.6891,-1.6972,-1.6952,-1.6954,-1.6957,-1.6985,-1.6992,-1.6997,-1.6924,-1.6924,-1.6924,0,0,-1.6516,-1.6542,-1.6582,-1.6608,-1.6648,-1.6666,-1.6675,-1.6716,-1.673,-1.678,-1.6787,-1.682,-1.6885,-1.6911,-1.6933,-1.6985,-1.6988,-1.6996,-1.7015,-1.7044,-1.7049,-1.7054,-1.7072,-1.7078,-1.7001,-1.7001,-1.7001,0,-1.6527,-1.6583,-1.6602,-1.6642,-1.6665,-1.6674,-1.6714,-1.6739,-1.6788,-1.6804,-1.6797,-1.6878,-1.6904,-1.6962,-1.6975,-1.6993,-1.7004,-1.6991,-1.7047,-1.7052,-1.7056,-1.7074,-1.708,-1.7001,-1.7001,-1.7001,-1.7001,0,-1.6595,-1.6634,-1.6661,-1.6708,-1.6735,-1.6775,-1.6799,-1.6824,-1.6833,-1.6852,-1.6902,-1.6934,-1.6976,-1.6991,-1.7,-1.7051,-1.7046,-1.7042,-1.7029,-1.7063,-1.7079,-1.7086,-1.7002,-1.7002,-1.7002,-1.7002,0,0,-1.664,-1.6696,-1.6706,-1.6727,-1.677,-1.6801,-1.684,-1.6882,-1.6903,-1.6936,-1.697,-1.7024,-1.7021,-1.7046,-1.7058,-1.7083,-1.7121,-1.7076,-1.7077,-1.7083,-1.7177,-1.7179,-1.7187,-1.7123,-1.7124,-1.7125,-1.7174,0,-1.6687,-1.6758,-1.6775,-1.6836,-1.6871,-1.688,-1.6914,-1.6945,-1.6963,-1.6996,-1.7017,-1.7054,-1.7048,-1.7063,-1.7088,-1.7111,-1.714,-1.7107,-1.7154,-1.7155,-1.7144,-1.7195,-1.7198,-1.7242,-1.7181,-1.7182,-1.7182,0,-1.6752,-1.6786,-1.685,-1.6888,-1.6904,-1.6934,-1.6973,-1.7005,-1.7039,-1.7051,-1.7078,-1.7088,-1.7129,-1.7113,-1.717,-1.7148,-1.7168,-1.7182,-1.7184,-1.7189,-1.7171,-1.7201,-1.7256,-1.7263,-1.7193,-1.7192,-1.7191,0,-1.6777,-1.6839,-1.6885,-1.6903,-1.6949,-1.697,-1.699,-1.7024,-1.7047,-1.7081,-1.7097,-1.7135,-1.7156,-1.7186,-1.7205,-1.7192,-1.726,-1.7247,-1.7271,-1.727,-1.7285,-1.7283,-1.7343,-1.7298,-1.7298,-1.7298,-1.7298,0,-1.6828,-1.6866,-1.6897,-1.6925,-1.6969,-1.6988,-1.703,-1.705,-1.708,-1.7112,-1.7122,-1.7152,-1.7176,-1.7209,-1.7224,-1.7268,-1.7278,-1.7288,-1.7292,-1.7287,-1.7286,-1.73,-1.7298,-1.73,-1.7299,-1.7299,-1.7299,0,-1.6863,-1.6886,-1.6936,-1.6975,-1.6986,-1.7016,-1.7049,-1.7077,-1.7095,-1.7136,-1.7146,-1.7176,-1.7215,-1.7237,-1.7287,-1.7297,-1.7346,-1.7349,-1.7334,-1.7336,-1.7359,-1.7356,-1.743,-1.744,-1.7388,-1.7389,-1.7389,0,-1.6894,-1.6923,-1.6965,-1.6987,-1.7008,-1.7043,-1.7067,-1.7087,-1.7112,-1.7153,-1.7175,-1.7215,-1.7248,-1.731,-1.7336,-1.7374,-1.7377,-1.74,-1.7383,-1.7377,-1.7377,-1.7374,-1.7377,-1.7403,-1.7404,-1.7404,-1.7404,0,-1.6945,-1.6955,-1.6989,-1.7027,-1.7055,-1.7086,-1.7117,-1.7134,-1.7159,-1.7186,-1.7226,-1.7252,-1.7302,-1.7341,-1.7381,-1.7402,-1.7407,-1.741,-1.7417,-1.7412,-1.7403,-1.7408,-1.7342,-1.7408,-1.7407,-1.7407,-1.7407,-1.7407,-1.6979,-1.7005,-1.7039,-1.7076,-1.7101,-1.713,-1.7157,-1.7179,-1.7213,-1.7255,-1.7265,-1.7307,-1.734,-1.7394,-1.7415,-1.7448,-1.7444,-1.7455,-1.7458,-1.746,-1.746,-1.7398,-1.7456,-1.7456,-1.7456,-1.7455,-1.7455,0,-1.7031,-1.7052,-1.7087,-1.7129,-1.7158,-1.716,-1.7194,-1.7219,-1.7255,-1.7286,-1.7318,-1.7363,-1.7401,-1.743,-1.7468,-1.7489,-1.7493,-1.7499,-1.7497,-1.7502,-1.7462,-1.7452,-1.7495,-1.7495,-1.7495,-1.7495,-1.7495,-1.7495,-1.7061,-1.7105,-1.7119,-1.7176,-1.7197,-1.7238,-1.7257,-1.7283,-1.7307,-1.7358,-1.7389,-1.7407,-1.7437,-1.7477,-1.7512,-1.7519,-1.7533,-1.7539,-1.7546,-1.7509,-1.7505,-1.7501,-1.7491,-1.7542,-1.7542,-1.7583,-1.7583,-1.7584]}]]